Upstream stations:
SHEF ID: TIFM7 Elk River near Tiff City, Mo
STATION TYPE:
Regulating: Stage = 15.00, Flow = 21304
PRECIP STAGE STAGE(2) RIV-FLOW BAT-LOAD
in ft ft cfs volt
Ccp-Rev Ccp-Rev Ccp-Rev Ccp-Rev Ccp-Rev
(US/Central)
07/05 00:00 0.00 3.62 3.61 337 11.12
07/05 01:00 0.00 3.62 3.61 337 11.11
07/05 02:00 0.00 3.62 3.61 337 10.93
07/05 03:00 0.00 3.61 3.61 333 11.09
07/05 04:00 0.00 3.61 3.61 333 10.96
07/05 05:00 0.00 3.60 -99999.00 329 10.89
07/05 06:00 0.00 3.60 3.60 329 10.87
07/05 07:00 0.00 3.59 3.59 325 11.58
07/05 08:00 0.00 3.59 3.59 325 11.31
07/05 09:00 0.00 3.59 3.57 325 11.69
07/05 10:00 0.00 3.59 3.58 325 11.78
07/05 11:00 0.00 3.58 3.55 321 11.77
07/05 12:00 0.00 3.58 3.55 321 11.85
07/05 13:00 0.00 3.58 3.55 321 11.88
07/05 14:00 0.00 3.57 3.55 317 11.85
07/05 15:00 0.00 3.56 3.55 313 11.81
07/05 16:00 0.00 3.56 3.52 313 11.71
07/05 17:00 0.00 3.55 3.55 309 11.69
07/05 18:00 0.00 3.55 3.53 309 11.45
07/05 19:00 0.00 3.54 3.51 305 11.49
07/05 20:00 0.00 3.54 3.53 305 11.24
07/05 21:00 0.00 3.53 3.53 301 11.00
07/05 22:00 0.00 3.53 3.53 301 10.93
07/05 23:00 0.00 3.53 3.52 301 10.88